Regional Weather Roundup
Issued by NWS

Home | Current Version | Previous Version | Graphics & Text | Print | Product List | Glossary On
Versions: 1 2 3 4 5 6 7 8 9 10 11 12 13 14 15 16 17 18 19 20 21 22 23 24 25 26 27 28 29 30 31 32 33 34 35 36 37 38 39 40 41 42 43 44 45 46 47 48 49 50
000
ASUS45 KTFX 300719
RWRMT
MONTANA HOURLY WEATHER ROUNDUP
NATIONAL WEATHER SERVICE GREAT FALLS MT
119 AM MDT WED JUL 30 2014

NOTE: "FAIR" INDICATES FEW OR NO CLOUDS BELOW 12000 FEET WITH NO
SIGNIFICANT WEATHER AND/OR OBSTRUCTIONS TO VISIBILITY.

* THESE STATIONS ARE NOT UNDER NWS QUALITY CONTROL. THEY DO NOT
   REPORT WEATHER SUCH AS PRECIPITATION OR FOG.

MTZ001>007-043-300800-
WEST OF THE DIVIDE
CITY           SKY/WX    TMP DP  RH WIND       PRES   REMARKS
KALISPELL      CLEAR     63  48  58 W3        30.09R
MISSOULA       PTCLDY    68  41  38 CALM      30.12R
BUTTE          MOCLDY    61  45  56 S6        30.30R
MULLAN PASS    CLEAR     72  36  27 VRB3      30.30S
* LINCOLN      N/A       57  48  72 NE1G6      N/A
* LOOKOUT PASS N/A       67  46  47 N1         N/A
* POLSON       N/A       70  43  38 NE2        N/A
* RONAN APT    CLEAR     61  52  72 N/A        N/A
* SEELEY LAKE  N/A       57  46  67 NE2        N/A
* THOMP F APT  CLEAR     54  45  72 N3G11      N/A
* YAAK HILL    N/A       66  45  47 E2         N/A
$$

MTZ008-052>055-300800-
SOUTHWEST MONTANA
CITY           SKY/WX    TMP DP  RH WIND       PRES   REMARKS
BOZEMAN        PTCLDY    64  46  52 SW5       30.22S
DILLON         CLOUDY    64  46  52 S7        30.26S
W YELLOWSTONE  FOG       46  46 100 CALM      30.40R VSB 1 1/4
* THREE FORKS  PTCLDY    61  61 100 N/A        N/A
* BOULDER HILL N/A       65  40  40 S4         N/A
* MONIDA PASS  N/A       55  48  77 N1         N/A
* RAYNOLDS PAS N/A       49  29  46 SE4        N/A
* WHITEHALL    N/A       63  46  54 N6         N/A
* WISE RIVER   N/A       61  42  50 SE4        N/A
$$

MTZ009>010-012-014-046-048-049-054-300800-
EAST SLOPES AND CENTRAL MONTANA
CITY           SKY/WX    TMP DP  RH WIND       PRES   REMARKS
CUT BANK       CLEAR     57  46  67 CALM      30.17S
GREAT FALLS    PTCLDY    66  45  47 CALM      30.15S
HELENA         PTCLDY    70  46  42 CALM      30.19R
MALMSTROM AFB  PTCLDY    64  45  50 S6        30.16S
* CONRAD       CLEAR     55  50  83 N/A        N/A
* DEARBORN     N/A       64  46  52 SW2        N/A
* EAST GLACIER N/A       58  46  65 NW6        N/A
* MONARCH      N/A       59  41  51 S12        N/A
* ROGERS PASS  N/A       62  43  50 NW2        N/A
* SAINT MARY   N/A       51  45  80 S3         N/A
* SWEET GRASS  N/A       70  41  35 S11        N/A
* WHITE SULPH  N/A       63  41  45 NE8G13     N/A
$$

MTZ011-013-016-021-035-040-045-047-050-051-300800-
NORTH CENTRAL MONTANA
CITY           SKY/WX    TMP DP  RH WIND       PRES   REMARKS
HAVRE          CLEAR     75  43  32 E10       30.12S
LEWISTOWN      CLEAR     66  41  40 E9        30.23S
* FORT BENTON  PTCLDY    77  41  28 E12       30.13F
* CHESTER      N/A       72  41  33 SE6G12     N/A
* DENTON       N/A       65  42  43 S11        N/A
* GEYSER       N/A       59  43  56 S2         N/A
* JUDITH GAP   N/A       68  41  38 E12        N/A
* LOMA         N/A       71  42  35 NE10       N/A
$$

MTZ017>020-022>027-061-062-300800-
NORTHEAST MONTANA
CITY           SKY/WX    TMP DP  RH WIND       PRES   REMARKS
GLASGOW        CLEAR     63  50  63 E12       30.17S
GLENDIVE       CLEAR     63  48  58 N7        30.20S
JORDAN         CLEAR     63  43  48 NE5       30.19R
SIDNEY         CLEAR     63  54  73 NW7       30.19S
WOLF POINT     CLEAR     61  52  72 E5        30.18S
* BEAVER HILL  N/A       62  51  67 E2         N/A
* CIRCLE       N/A       64  51  63 N/A        N/A
* LINDSAY DVD  N/A       61  49  65 NE5        N/A
$$

MTZ028>042-056>058-300800-
SOUTHCENTRAL AND SOUTHEAST MONTANA
CITY           SKY/WX    TMP DP  RH WIND       PRES   REMARKS
BAKER          CLEAR     61  52  72 S3        30.20R
BILLINGS       PTCLDY    72  54  53 W14       30.22R
LIVINGSTON     MOCLDY    64  48  56 CALM      30.24S
MILES CITY     CLEAR     64  46  52 NE6       30.18R
* LAUREL APT   PTCLDY    66  52  61 SW5        N/A
* ROUNDUP APT  CLEAR     70  39  32 N/A        N/A
* ALZADA       N/A       60  55  84 E2         N/A
* HYSHAM       N/A       72  41  33 E9         N/A
* LAME DEER    N/A       69  40  35 E7         N/A
* REED POINT   N/A       67  55  66 E1         N/A
* ROSCOE HILL  N/A       62  43  50 SE6        N/A
$$

REGIONAL REPORTS...DAKOTAS
CITY           SKY/WX    TMP DP  RH WIND       PRES   REMARKS
WILLISTON      CLEAR     61  57  87 N5        30.18S
DICKINSON      CLEAR     57  55  93 NE3       30.17S
CROSBY         N/A       54  54 100 NW3       30.20R
TIOGA          FOG       52  52 100 CALM      30.22S
WATFORD CITY   CLEAR     55  55 100 CALM      30.17R
BISMARCK       CLEAR     61  30  31 CALM      30.17S
GRAND FORKS    CLEAR     55  54  96 W6        30.10F
FARGO          CLEAR     57  54  90 CALM      30.11S
BUFFALO SD     CLEAR     63  52  68 W8        30.12R
RAPID CITY     PTCLDY    55  50  83 CALM      30.21S
$$

REGIONAL REPORTS...WYOMING/IDAHO/WASHINGTON
CITY           SKY/WX    TMP DP  RH WIND       PRES   REMARKS
GILLETTE       PTCLDY    59  54  84 SW9       30.27S
SHERIDAN       PTCLDY    55  46  72 SE3       30.24S
YELLOWSTONE LA MOCLDY    45  43  93 CALM      30.48R
SALMON         CLOUDY    61  54  78 NW3       30.20R
MULLAN PASS    CLEAR     72  36  27 VRB3      30.30S
SAND POINT     CLEAR     59  50  72 CALM      30.02R
SPOKANE        FAIR      81  34  18 CALM      30.02R
$$

REGIONAL REPORTS...ALBERTA
CITY           SKY/WX    TMP DP  RH WIND       PRES   REMARKS
CALGARY        N/A       84  32  15 S8G17     30.11F
LETHBRIDGE     CLEAR     55  50  83 W5        30.11S
MEDICINE HAT   CLEAR     77  46  33 S10G20    30.09S
EDMONTON       TSTM      68  66  93 SE12      30.05F
WATERTON GATE  N/A       57  45  64 SW8        N/A
CARDSTON       N/A       57  52  83 SE7        N/A
MILK RIVER     N/A       64  43  47 S5         N/A
$$

REGIONAL REPORTS...SASKATCHEWAN
CITY           SKY/WX    TMP DP  RH WIND       PRES   REMARKS
SWIFT CURRENT  CLEAR     59  55  87 S12       30.17S
REGINA         N/A       59  55  87 SE6       30.19S
VAL MARIE      N/A       61  54  78 SW3        N/A
ASSINIBOIA     N/A       59  55  87 SE7        N/A
CORONACH       N/A       54  52  93 SE2        N/A

$$




USA.gov is the U.S. government's official web portal to all federal, state and local government web resources and services.